0 HST 1 20580U 90037B 26105.21468105 .00003558 00000-0 11128-3 0 9992 2 20580 28.4728 150.7274 0002222 160.8426 199.2254 15.30050291778919 0 ISS (ZARYA) 1 25544U 98067A 26105.23148970 .00005508 00000-0 10834-3 0 9995 2 25544 51.6321 251.6702 0006571 314.4960 45.5491 15.48920688561998 0 CXO 1 25867U 99040B 26105.90737653 .00000932 00000-0 00000-0 0 9998 2 25867 55.1609 118.4976 7943121 310.5395 0.1381 0.37807016 17086